Location: Unspecified
(0.0000°N, 0.0000°E)
Time: 23:42:39
(UTC+00:00)

Nadezhda 1 - Visible Passes

Search period start: 01 March 2021 00:00
Search period end: 11 March 2021 00:00
Orbit: 954 x 1011 km, 83.0° (Epoch: 01 March)

Date Brightness Start Highest point End Pass type
(mag) Time Alt. Az. Time Alt. Az. Time Alt. Az.
03 Mar 8.3 20:11:12 10° SSE 20:11:12 10° SSE 19:57:52 - N visible
04 Mar 7.7 20:26:26 10° NNW 20:36:36 23° SSW 20:38:48 10° S visible
05 Mar 6.9 19:10:06 10° NE 19:14:56 24° E 19:19:49 10° SE visible
05 Mar 7.7 20:55:01 10° NW 21:00:07 27° W 21:05:20 10° SSW visible
06 Mar 6.0 19:36:25 10° N 19:42:28 55° E 19:48:38 10° SSE visible
06 Mar 8.8 21:26:29 10° W 21:27:44 11° W 21:29:00 10° WSW visible
07 Mar 6.3 20:03:51 10° NNW 20:10:02 66° W 20:16:19 10° S visible
08 Mar 7.0 18:47:40 10° NE 18:52:25 23° E 18:57:11 10° SE visible
08 Mar 7.8 20:32:23 10° NW 20:37:37 28° W 20:42:56 10° SSW visible
09 Mar 6.1 19:13:54 10° NNE 19:19:57 53° E 19:26:06 10° SSE visible
09 Mar 8.8 21:03:19 10° WNW 21:05:12 11° W 21:07:07 10° WSW visible
10 Mar 6.3 19:41:18 10° N 19:47:30 69° W 19:53:50 10° S visible
